Location: Unspecified
(42.3650°N, 71.1030°W)
Time: 14:48:41
(UTC+00:00)

NOSS 2-1 (C) - Pass Details

Date: 02 March 2024
Orbit: 389 x 1751 km, 63.3° (Epoch: 08 April)

Event Time Altitude Azimuth Distance (km) Brightness Sun altitude
Rises 23:25:34 0° 322° (NW) 2,661 7.4 -9.9°
Reaches altitude 10° 23:27:27 10° 321° (NW) 1,893 6.6 -10.3°
Maximum altitude 23:31:40 78° 236° (SW) 736 4.0 -11.0°
Drops below altitude 10° 23:37:40 10° 151° (SSE) 2,660 6.5 -12.1°
Sets 23:40:43 0° 150° (SSE) 3,845 7.3 -12.7°
